TimeCXT,TemperatureF,Dew PointF,Humidity,Sea Level PressureIn,VisibilityMPH,Wind Direction,Wind SpeedMPH,Gust SpeedMPH,PrecipitationIn,Events,Conditions,WindDirDegrees,DateUTC
12:00 AM,76,72,85,29.89,,SSE,6.9,,,,,150,2012-12-02 17:00:00
12:00 AM,77.0,71.6,83,29.92,-9999.0,SSE,6.9,-,N/A,,Unknown,150,2012-12-02 17:00:00
1:00 AM,76,71,82,29.87,,SSE,8.1,,,,,160,2012-12-02 18:00:00
1:00 AM,75.2,71.6,89,29.92,-9999.0,SSE,8.1,-,N/A,,Unknown,160,2012-12-02 18:00:00
2:00 AM,75.2,71.6,89,29.89,-9999.0,SSE,6.9,-,N/A,,Unknown,160,2012-12-02 19:00:00
3:00 AM,76,72,82,29.84,,SSE,6.9,,,,,160,2012-12-02 20:00:00
4:00 AM,76,72,82,29.84,,SSE,6.9,,,,,150,2012-12-02 21:00:00
6:00 AM,75,73,90,29.85,,SSE,8.1,,,,,150,2012-12-02 23:00:00
7:00 AM,76,72,83,29.87,,SSE,8.1,,,,,160,2012-12-03 00:00:00
9:00 AM,78,72,75,29.89,,SSE,8.1,,,,,160,2012-12-03 02:00:00
1:00 PM,81,73,71,29.85,,SSE,9.2,,,,,160,2012-12-03 06:00:00
1:00 PM,80.6,73.4,79,29.89,-9999.0,SSE,9.2,-,N/A,,Unknown,160,2012-12-03 06:00:00
2:00 PM,80.6,73.4,79,29.89,-9999.0,SSE,10.4,-,N/A,,Unknown,150,2012-12-03 07:00:00
4:00 PM,79,72,74,29.82,,SSE,8.1,,,,,160,2012-12-03 09:00:00
4:00 PM,78.8,71.6,78,29.86,-9999.0,SSE,8.1,-,N/A,,Unknown,160,2012-12-03 09:00:00
6:00 PM,77,72,79,29.83,,SE,6.9,,,,,140,2012-12-03 11:00:00
6:00 PM,77.0,71.6,83,29.86,-9999.0,SE,6.9,-,N/A,,Unknown,140,2012-12-03 11:00:00
7:00 PM,77.0,71.6,83,29.89,-9999.0,SE,8.1,-,N/A,,Unknown,140,2012-12-03 12:00:00
8:00 PM,77.0,73.4,89,29.89,-9999.0,SE,9.2,-,N/A,,Unknown,130,2012-12-03 13:00:00
9:00 PM,76,72,85,29.87,,SE,8.1,,,,,140,2012-12-03 14:00:00
9:00 PM,77.0,71.6,83,29.92,-9999.0,SE,8.1,-,N/A,,Unknown,140,2012-12-03 14:00:00
10:00 PM,76,72,84,29.88,,ESE,8.1,,,,,120,2012-12-03 15:00:00
10:00 PM,77.0,71.6,83,29.92,-9999.0,ESE,8.1,-,N/A,,Unknown,120,2012-12-03 15:00:00
11:00 PM,75.2,71.6,89,29.92,-9999.0,SSE,4.6,-,N/A,,Unknown,150,2012-12-03 16:00:00